Time,TemperatureF,DewpointF,PressureIn,WindDirection,WindDirectionDegrees,WindSpeedMPH,WindSpeedGustMPH,Humidity,HourlyPrecipIn,Conditions,Clouds,dailyrainin,SoftwareType,DateUTC
2013-06-06 00:02:00,53.0,52.0,30.06,North,9,0.0,5.0,95,0.00,,,0.00,,2013-06-06 07:02:00,
2013-06-06 00:11:00,53.0,52.0,30.06,North,9,0.0,5.0,95,0.00,,,0.00,,2013-06-06 07:11:00,
2013-06-06 00:22:00,53.0,52.0,30.06,NW,324,0.0,8.0,95,0.00,,,0.00,,2013-06-06 07:22:00,
2013-06-06 00:32:00,53.0,52.0,30.06,North,0,0.0,0.0,95,0.00,,,0.00,,2013-06-06 07:32:00,
2013-06-06 00:42:00,53.0,52.0,30.06,North,0,0.0,0.0,95,0.00,,,0.00,,2013-06-06 07:42:00,
2013-06-06 00:52:00,53.0,52.0,30.06,North,0,0.0,0.0,96,0.00,,,0.00,,2013-06-06 07:52:00,
2013-06-06 01:02:00,53.0,52.0,30.06,North,0,0.0,0.0,96,0.00,,,0.00,,2013-06-06 08:02:00,
2013-06-06 01:11:00,52.0,51.0,30.06,North,0,0.0,0.0,96,0.00,,,0.00,,2013-06-06 08:11:00,
2013-06-06 01:22:00,52.0,51.0,30.06,North,0,0.0,0.0,96,0.00,,,0.00,,2013-06-06 08:22:00,
2013-06-06 01:32:00,52.0,51.0,30.06,NNE,19,2.0,5.0,96,0.00,,,0.00,,2013-06-06 08:32:00,
2013-06-06 01:42:00,52.0,51.0,30.06,North,0,1.0,10.0,96,0.00,,,0.00,,2013-06-06 08:42:00,
2013-06-06 01:52:00,52.0,51.0,30.06,North,0,1.0,10.0,96,0.00,,,0.00,,2013-06-06 08:52:00,
2013-06-06 02:02:00,52.0,51.0,30.06,East,89,1.0,5.0,96,0.00,,,0.00,,2013-06-06 09:02:00,
2013-06-06 02:11:00,52.0,51.0,30.06,North,0,0.0,0.0,96,0.00,,,0.00,,2013-06-06 09:11:00,
2013-06-06 02:22:00,52.0,51.0,30.06,North,0,0.0,0.0,96,0.00,,,0.00,,2013-06-06 09:22:00,
2013-06-06 02:32:00,52.0,51.0,30.07,North,0,2.0,2.0,96,0.00,,,0.00,,2013-06-06 09:32:00,
2013-06-06 02:42:00,52.0,51.0,30.07,North,0,2.0,2.0,96,0.00,,,0.00,,2013-06-06 09:42:00,
2013-06-06 02:53:00,51.0,50.0,30.07,NW,324,1.0,6.0,96,0.00,,,0.00,,2013-06-06 09:53:00,
2013-06-06 03:02:00,52.0,51.0,30.08,NNW,344,7.0,12.0,97,0.00,,,0.00,,2013-06-06 10:02:00,
2013-06-06 03:12:00,52.0,51.0,30.08,NNW,344,7.0,12.0,97,0.00,,,0.00,,2013-06-06 10:12:00,
2013-06-06 03:22:00,52.0,51.0,30.08,NNW,344,7.0,12.0,97,0.00,,,0.00,,2013-06-06 10:22:00,
2013-06-06 03:33:00,53.0,52.0,30.07,NW,305,2.0,8.0,96,0.00,,,0.00,,2013-06-06 10:33:00,
2013-06-06 03:41:00,53.0,52.0,30.07,NW,305,2.0,8.0,96,0.00,,,0.00,,2013-06-06 10:41:00,
2013-06-06 03:53:00,53.0,52.0,30.07,NW,305,2.0,8.0,96,0.00,,,0.00,,2013-06-06 10:53:00,
2013-06-06 04:02:00,53.0,52.0,30.07,NNW,330,0.0,10.0,96,0.00,,,0.00,,2013-06-06 11:02:00,
2013-06-06 04:11:00,52.0,51.0,30.07,North,2,3.0,9.0,96,0.00,,,0.00,,2013-06-06 11:11:00,
2013-06-06 04:22:00,52.0,51.0,30.07,North,2,3.0,9.0,96,0.00,,,0.00,,2013-06-06 11:22:00,
2013-06-06 04:32:00,51.0,50.0,30.06,North,0,0.0,0.0,96,0.00,,,0.00,,2013-06-06 11:32:00,
2013-06-06 04:42:00,51.0,50.0,30.06,North,0,0.0,0.0,96,0.00,,,0.00,,2013-06-06 11:42:00,
2013-06-06 04:52:00,51.0,50.0,30.06,North,0,0.0,0.0,96,0.00,,,0.00,,2013-06-06 11:52:00,
2013-06-06 05:02:00,50.0,49.0,30.06,North,0,0.0,0.0,96,0.00,,,0.00,,2013-06-06 12:02:00,
2013-06-06 05:22:00,50.0,49.0,30.06,North,0,0.0,0.0,96,0.00,,,0.00,,2013-06-06 12:22:00,
2013-06-06 05:32:00,50.0,49.0,30.07,North,0,0.0,0.0,96,0.00,,,0.00,,2013-06-06 12:32:00,
2013-06-06 05:42:00,50.0,49.0,30.07,North,0,0.0,3.0,97,0.00,,,0.00,,2013-06-06 12:42:00,
2013-06-06 05:52:00,50.0,49.0,30.07,North,0,0.0,3.0,97,0.00,,,0.00,,2013-06-06 12:52:00,
2013-06-06 06:02:00,50.0,49.0,30.08,NE,43,4.0,9.0,97,0.00,,,0.00,,2013-06-06 13:02:00,
2013-06-06 06:11:00,50.0,49.0,30.08,NNW,348,0.0,9.0,97,0.00,,,0.00,,2013-06-06 13:11:00,
2013-06-06 06:22:00,50.0,49.0,30.08,NNW,348,0.0,9.0,97,0.00,,,0.00,,2013-06-06 13:22:00,
2013-06-06 06:32:00,50.0,49.0,30.09,North,0,0.0,0.0,97,0.00,,,0.00,,2013-06-06 13:32:00,
2013-06-06 06:42:00,50.0,49.0,30.09,North,0,0.0,0.0,97,0.00,,,0.00,,2013-06-06 13:42:00,
2013-06-06 06:52:00,50.0,49.0,30.09,North,0,0.0,0.0,97,0.00,,,0.00,,2013-06-06 13:52:00,
2013-06-06 07:02:00,51.0,50.0,30.08,North,0,0.0,0.0,97,0.00,,,0.00,,2013-06-06 14:02:00,
2013-06-06 07:22:00,51.0,50.0,30.08,North,0,0.0,0.0,97,0.00,,,0.00,,2013-06-06 14:22:00,
2013-06-06 07:32:00,51.0,50.0,30.08,North,0,0.0,0.0,97,0.00,,,0.00,,2013-06-06 14:32:00,
2013-06-06 07:42:00,52.0,51.0,30.09,North,0,0.0,7.0,97,0.00,,,0.00,,2013-06-06 14:42:00,
2013-06-06 07:53:00,52.0,51.0,30.09,North,0,0.0,7.0,97,0.00,,,0.00,,2013-06-06 14:53:00,
2013-06-06 08:02:00,51.0,50.0,30.10,North,4,3.0,7.0,97,0.00,,,0.00,,2013-06-06 15:02:00,
2013-06-06 08:12:00,51.0,50.0,30.10,North,4,3.0,7.0,97,0.00,,,0.00,,2013-06-06 15:12:00,
2013-06-06 08:22:00,51.0,50.0,30.10,North,4,3.0,7.0,97,0.00,,,0.00,,2013-06-06 15:22:00,
2013-06-06 08:32:00,53.0,52.0,30.10,North,357,9.0,14.0,96,0.00,,,0.00,,2013-06-06 15:32:00,
2013-06-06 08:42:00,53.0,52.0,30.10,North,357,9.0,14.0,96,0.00,,,0.00,,2013-06-06 15:42:00,
2013-06-06 08:53:00,53.0,52.0,30.10,NNW,348,9.0,15.0,96,0.00,,,0.00,,2013-06-06 15:53:00,
2013-06-06 09:02:00,55.0,53.0,30.10,North,0,9.0,16.0,93,0.00,,,0.00,,2013-06-06 16:02:00,
2013-06-06 09:12:00,55.0,53.0,30.10,NNW,340,11.0,17.0,92,0.00,,,0.00,,2013-06-06 16:12:00,
2013-06-06 09:22:00,55.0,53.0,30.10,NNW,340,11.0,17.0,92,0.00,,,0.00,,2013-06-06 16:22:00,
2013-06-06 09:33:00,57.0,54.0,30.10,NW,324,11.0,15.0,89,0.00,,,0.00,,2013-06-06 16:33:00,
2013-06-06 09:42:00,57.0,54.0,30.10,NW,324,11.0,15.0,89,0.00,,,0.00,,2013-06-06 16:42:00,
2013-06-06 09:52:00,58.0,54.0,30.10,NNW,327,9.0,15.0,87,0.00,,,0.00,,2013-06-06 16:52:00,
2013-06-06 10:02:00,60.0,55.0,30.09,NNW,334,11.0,15.0,84,0.00,,,0.00,,2013-06-06 17:02:00,
2013-06-06 10:12:00,60.0,54.0,30.09,North,354,11.0,15.0,82,0.00,,,0.00,,2013-06-06 17:12:00,
2013-06-06 10:22:00,60.0,54.0,30.09,North,354,11.0,15.0,82,0.00,,,0.00,,2013-06-06 17:22:00,
2013-06-06 10:32:00,61.0,55.0,30.09,WNW,291,8.0,14.0,81,0.00,,,0.00,,2013-06-06 17:32:00,
2013-06-06 10:52:00,61.0,54.0,30.09,NW,319,10.0,15.0,79,0.00,,,0.00,,2013-06-06 17:52:00,
2013-06-06 11:02:00,62.0,55.0,30.09,WNW,289,11.0,17.0,79,0.00,,,0.00,,2013-06-06 18:02:00,
2013-06-06 11:12:00,62.0,55.0,30.09,WNW,289,11.0,17.0,79,0.00,,,0.00,,2013-06-06 18:12:00,
2013-06-06 11:22:00,62.0,55.0,30.09,WNW,289,11.0,17.0,79,0.00,,,0.00,,2013-06-06 18:22:00,
2013-06-06 11:33:00,61.0,54.0,30.09,NNW,338,12.0,20.0,79,0.00,,,0.00,,2013-06-06 18:33:00,
2013-06-06 11:42:00,61.0,54.0,30.09,NNW,338,12.0,20.0,79,0.00,,,0.00,,2013-06-06 18:42:00,
2013-06-06 11:53:00,61.0,54.0,30.09,NNW,338,12.0,20.0,79,0.00,,,0.00,,2013-06-06 18:53:00,
2013-06-06 12:02:00,59.0,53.0,30.09,NNW,329,12.0,18.0,80,0.00,,,0.00,,2013-06-06 19:02:00,
2013-06-06 12:11:00,60.0,53.0,30.09,NW,320,15.0,21.0,78,0.00,,,0.00,,2013-06-06 19:11:00,
2013-06-06 12:23:00,60.0,53.0,30.09,NW,320,15.0,21.0,78,0.00,,,0.00,,2013-06-06 19:23:00,
2013-06-06 12:32:00,59.0,52.0,30.09,North,354,12.0,20.0,79,0.00,,,0.00,,2013-06-06 19:32:00,
2013-06-06 12:52:00,59.0,53.0,30.09,North,7,12.0,21.0,81,0.00,,,0.00,,2013-06-06 19:52:00,
2013-06-06 13:02:00,59.0,53.0,30.09,NNW,341,14.0,23.0,81,0.00,,,0.00,,2013-06-06 20:02:00,
2013-06-06 13:12:00,59.0,53.0,30.08,NNW,333,13.0,19.0,80,0.00,,,0.00,,2013-06-06 20:12:00,
2013-06-06 13:22:00,59.0,53.0,30.08,NNW,333,13.0,19.0,80,0.00,,,0.00,,2013-06-06 20:22:00,
2013-06-06 13:32:00,59.0,53.0,30.08,NNW,337,12.0,21.0,81,0.00,,,0.00,,2013-06-06 20:32:00,
2013-06-06 13:42:00,59.0,53.0,30.08,NNW,337,12.0,21.0,81,0.00,,,0.00,,2013-06-06 20:42:00,
2013-06-06 13:52:00,59.0,53.0,30.09,North,7,13.0,21.0,80,0.00,,,0.00,,2013-06-06 20:52:00,
2013-06-06 14:02:00,59.0,53.0,30.09,NNW,333,13.0,22.0,81,0.00,,,0.00,,2013-06-06 21:02:00,
2013-06-06 14:11:00,59.0,53.0,30.09,NW,326,15.0,25.0,80,0.00,,,0.00,,2013-06-06 21:11:00,
2013-06-06 14:22:00,59.0,53.0,30.09,NW,326,15.0,25.0,80,0.00,,,0.00,,2013-06-06 21:22:00,
2013-06-06 14:33:00,60.0,54.0,30.09,North,352,15.0,23.0,80,0.00,,,0.00,,2013-06-06 21:33:00,
2013-06-06 14:43:00,60.0,54.0,30.09,North,352,15.0,23.0,80,0.00,,,0.00,,2013-06-06 21:43:00,
2013-06-06 14:53:00,60.0,54.0,30.09,North,352,15.0,23.0,80,0.00,,,0.00,,2013-06-06 21:53:00,
2013-06-06 15:02:00,60.0,54.0,30.09,North,350,14.0,27.0,81,0.00,,,0.00,,2013-06-06 22:02:00,
2013-06-06 15:12:00,60.0,54.0,30.09,NNW,343,18.0,24.0,81,0.00,,,0.00,,2013-06-06 22:12:00,
2013-06-06 15:23:00,60.0,54.0,30.09,NNW,343,18.0,24.0,81,0.00,,,0.00,,2013-06-06 22:23:00,
2013-06-06 15:33:00,60.0,54.0,30.10,NNW,345,16.0,29.0,81,0.00,,,0.00,,2013-06-06 22:33:00,
2013-06-06 15:43:00,60.0,54.0,30.10,NNW,345,16.0,29.0,81,0.00,,,0.00,,2013-06-06 22:43:00,
2013-06-06 15:52:00,60.0,54.0,30.10,NNW,343,16.0,25.0,81,0.00,,,0.00,,2013-06-06 22:52:00,
2013-06-06 16:02:00,60.0,54.0,30.09,NW,324,13.0,27.0,81,0.00,,,0.00,,2013-06-06 23:02:00,
2013-06-06 16:11:00,60.0,54.0,30.09,NW,322,15.0,24.0,81,0.00,,,0.00,,2013-06-06 23:11:00,
2013-06-06 16:22:00,60.0,54.0,30.09,NW,322,15.0,24.0,81,0.00,,,0.00,,2013-06-06 23:22:00,
2013-06-06 16:33:00,60.0,54.0,30.09,NNW,341,15.0,20.0,80,0.00,,,0.00,,2013-06-06 23:33:00,
2013-06-06 16:42:00,60.0,54.0,30.09,NNW,341,15.0,20.0,80,0.00,,,0.00,,2013-06-06 23:42:00,
2013-06-06 16:52:00,59.0,54.0,30.09,NNW,329,13.0,24.0,82,0.00,,,0.00,,2013-06-06 23:52:00,
2013-06-06 17:02:00,59.0,54.0,30.09,NNW,327,6.0,14.0,83,0.00,,,0.00,,2013-06-07 00:02:00,
2013-06-06 17:11:00,59.0,54.0,30.09,NNW,327,6.0,14.0,83,0.00,,,0.00,,2013-06-07 00:11:00,
2013-06-06 17:21:00,59.0,54.0,30.09,NNW,336,9.0,20.0,82,0.00,,,0.00,,2013-06-07 00:21:00,
2013-06-06 17:32:00,60.0,54.0,30.09,North,8,13.0,21.0,82,0.00,,,0.00,,2013-06-07 00:32:00,
2013-06-06 17:42:00,60.0,54.0,30.09,North,8,13.0,21.0,82,0.00,,,0.00,,2013-06-07 00:42:00,
2013-06-06 17:52:00,60.0,54.0,30.09,NNW,329,12.0,23.0,82,0.00,,,0.00,,2013-06-07 00:52:00,
2013-06-06 18:02:00,59.0,54.0,30.08,NNE,14,10.0,22.0,82,0.00,,,0.00,,2013-06-07 01:02:00,
2013-06-06 18:11:00,60.0,54.0,30.08,North,8,11.0,22.0,81,0.00,,,0.00,,2013-06-07 01:11:00,
2013-06-06 18:22:00,60.0,54.0,30.08,North,8,11.0,22.0,81,0.00,,,0.00,,2013-06-07 01:22:00,
2013-06-06 18:32:00,60.0,54.0,30.07,NNW,333,14.0,16.0,81,0.00,,,0.00,,2013-06-07 01:32:00,
2013-06-06 18:42:00,60.0,54.0,30.07,NNW,333,14.0,16.0,81,0.00,,,0.00,,2013-06-07 01:42:00,
2013-06-06 18:52:00,59.0,54.0,30.07,NW,322,10.0,19.0,83,0.00,,,0.00,,2013-06-07 01:52:00,
2013-06-06 19:02:00,59.0,54.0,30.07,NNW,343,10.0,15.0,83,0.00,,,0.00,,2013-06-07 02:02:00,
2013-06-06 19:22:00,59.0,54.0,30.06,NNW,337,9.0,18.0,82,0.00,,,0.00,,2013-06-07 02:22:00,
2013-06-06 19:32:00,59.0,54.0,30.06,NW,316,9.0,20.0,82,0.00,,,0.00,,2013-06-07 02:32:00,
2013-06-06 19:42:00,59.0,54.0,30.06,NW,316,9.0,20.0,82,0.00,,,0.00,,2013-06-07 02:42:00,
2013-06-06 19:52:00,59.0,54.0,30.06,North,351,15.0,20.0,83,0.00,,,0.00,,2013-06-07 02:52:00,
2013-06-06 20:02:00,57.0,52.0,30.07,NW,317,14.0,24.0,84,0.00,,,0.00,,2013-06-07 03:02:00,
2013-06-06 20:11:00,57.0,53.0,30.07,NNW,344,8.0,18.0,85,0.00,,,0.00,,2013-06-07 03:11:00,
2013-06-06 20:21:00,57.0,53.0,30.07,NNW,344,8.0,18.0,85,0.00,,,0.00,,2013-06-07 03:21:00,
2013-06-06 20:32:00,56.0,52.0,30.08,North,2,11.0,18.0,87,0.00,,,0.00,,2013-06-07 03:32:00,
2013-06-06 20:43:00,56.0,52.0,30.08,North,2,11.0,18.0,87,0.00,,,0.00,,2013-06-07 03:43:00,
2013-06-06 20:53:00,56.0,52.0,30.08,NNW,345,11.0,21.0,88,0.00,,,0.00,,2013-06-07 03:53:00,
2013-06-06 21:03:00,56.0,53.0,30.09,NW,323,9.0,14.0,89,0.00,,,0.00,,2013-06-07 04:03:00,
2013-06-06 21:12:00,55.0,52.0,30.09,SE,138,3.0,14.0,89,0.00,,,0.00,,2013-06-07 04:12:00,
2013-06-06 21:22:00,55.0,52.0,30.09,SE,138,3.0,14.0,89,0.00,,,0.00,,2013-06-07 04:22:00,
2013-06-06 21:33:00,55.0,52.0,30.09,North,0,0.0,7.0,89,0.00,,,0.00,,2013-06-07 04:33:00,
2013-06-06 21:42:00,55.0,52.0,30.09,North,0,0.0,7.0,89,0.00,,,0.00,,2013-06-07 04:42:00,
2013-06-06 21:53:00,54.0,51.0,30.09,North,0,0.0,0.0,89,0.00,,,0.00,,2013-06-07 04:53:00,
2013-06-06 22:02:00,54.0,51.0,30.09,North,0,0.0,0.0,90,0.00,,,0.00,,2013-06-07 05:02:00,
2013-06-06 22:11:00,54.0,51.0,30.08,North,0,0.0,0.0,90,0.00,,,0.00,,2013-06-07 05:11:00,
2013-06-06 22:22:00,54.0,51.0,30.08,North,0,0.0,0.0,90,0.00,,,0.00,,2013-06-07 05:22:00,
2013-06-06 22:32:00,53.0,51.0,30.09,NNE,29,4.0,6.0,92,0.00,,,0.00,,2013-06-07 05:32:00,
2013-06-06 22:42:00,52.0,50.0,30.09,North,4,0.0,6.0,92,0.00,,,0.00,,2013-06-07 05:42:00,
2013-06-06 22:52:00,52.0,50.0,30.09,North,4,0.0,6.0,92,0.00,,,0.00,,2013-06-07 05:52:00,
2013-06-06 23:02:00,52.0,50.0,30.09,NNW,340,1.0,7.0,93,0.00,,,0.00,,2013-06-07 06:02:00,
2013-06-06 23:12:00,52.0,50.0,30.09,NNW,340,1.0,7.0,93,0.00,,,0.00,,2013-06-07 06:12:00,
2013-06-06 23:21:00,52.0,50.0,30.10,NNW,343,0.0,7.0,93,0.00,,,0.00,,2013-06-07 06:21:00,
2013-06-06 23:32:00,52.0,50.0,30.09,North,0,0.0,0.0,94,0.00,,,0.00,,2013-06-07 06:32:00,
2013-06-06 23:41:00,52.0,50.0,30.09,North,0,0.0,0.0,94,0.00,,,0.00,,2013-06-07 06:41:00,
2013-06-06 23:52:00,51.0,49.0,30.09,North,0,0.0,5.0,94,0.00,,,0.00,,2013-06-07 06:52:00,